Hauptseite
METAR-TAF:

METAR-TAF

Flughäfen :

Bohrplattform

K13-a, Niederlande

Breite: 53-13-04N, Länge: 3-13-13E, Höhe: 31 m

Beobachtung

Neuester Wetterbericht von vor 36 Minuten, um 03:55 UTC
Wind 19 kt aus Süd/Südost
Temperatur 9°C
Luftfeuchtigkeit 87%
Luftdruck 1001 hPa

METAR: EHJR 220355Z AUTO 15019KT //// // ///////// 09/07 Q1001 RE// W12/H11

Zeit: 05:31 (04:31 UTC)


TAF: fehlend

Wetterbeobachtungen und Prognosen von mehr als 4000 Flughäfen (METAR und TAF Bericht).

Die verfügbaren Stationen werden durch gelbe und rote Markierungen auf der Karte dargestellt.

Führen Sie die Maus auf sie, um den Namen der Station zu sehen.

Darauf klicken, um die Beobachtung von Wetterbeobachtungen und Prognosen zu sehen.

Um die Karte zu ändern : klicken Sie auf den grünen Tasten mit einem schwarzen Kreuz Zum Vergrößern, auf den grünen Button mit einem Gedankenstrich zu verkleinern, oder auf die grünen Pfeile für benachbarte Karten.


METAR-TAF: